TimeMDT,TemperatureF,Dew PointF,Humidity,Sea Level PressureIn,VisibilityMPH,Wind Direction,Wind SpeedMPH,Gust SpeedMPH,PrecipitationIn,Events,Conditions,WindDirDegrees,DateUTC
12:53 AM,33.1,30.0,89,29.98,10.0,SE,6.9,-,N/A,,Overcast,140,2013-10-30 06:53:00
1:53 AM,33.1,28.9,85,29.97,10.0,SE,8.1,-,N/A,,Overcast,130,2013-10-30 07:53:00
2:53 AM,33.1,30.0,89,29.94,10.0,SE,8.1,-,N/A,,Overcast,130,2013-10-30 08:53:00
3:37 AM,33.8,30.2,87,29.86,10.0,SE,10.4,-,N/A,,Overcast,140,2013-10-30 09:37:00
3:53 AM,32.0,28.9,88,29.93,10.0,SE,10.4,-,N/A,,Overcast,140,2013-10-30 09:53:00
4:53 AM,32.0,28.9,88,29.92,10.0,SE,10.4,-,N/A,,Overcast,140,2013-10-30 10:53:00
5:19 AM,30.2,28.4,93,29.85,10.0,SSE,9.2,-,N/A,,Scattered Clouds,150,2013-10-30 11:19:00
5:53 AM,30.9,28.9,92,29.92,10.0,SSE,9.2,-,N/A,,Clear,160,2013-10-30 11:53:00
6:53 AM,28.9,28.0,96,29.91,10.0,SSE,4.6,-,N/A,,Clear,150,2013-10-30 12:53:00
7:53 AM,30.0,28.0,92,29.90,10.0,SSE,3.5,-,N/A,,Clear,150,2013-10-30 13:53:00
8:53 AM,32.0,30.0,92,29.90,10.0,SSE,5.8,-,N/A,,Clear,160,2013-10-30 14:53:00
9:53 AM,34.0,30.9,89,29.89,10.0,SSE,10.4,-,N/A,,Clear,160,2013-10-30 15:53:00
11:53 AM,39.0,33.1,79,29.80,10.0,WSW,4.6,-,N/A,,Unknown,250,2013-10-30 17:53:00
12:53 PM,43.0,34.0,71,29.78,10.0,WSW,6.9,-,N/A,,Unknown,240,2013-10-30 18:53:00
1:53 PM,46.0,34.0,63,29.75,10.0,West,12.7,-,N/A,,Clear,260,2013-10-30 19:53:00
2:53 PM,46.9,32.0,56,29.73,10.0,WNW,10.4,-,N/A,,Clear,290,2013-10-30 20:53:00
3:53 PM,46.9,30.0,52,29.73,10.0,WNW,13.8,-,N/A,,Clear,290,2013-10-30 21:53:00
4:53 PM,46.0,30.9,56,29.73,10.0,West,9.2,-,N/A,,Clear,270,2013-10-30 22:53:00
5:53 PM,42.1,33.1,70,29.72,10.0,West,5.8,-,N/A,,Clear,260,2013-10-30 23:53:00
6:53 PM,37.9,30.9,76,29.73,10.0,SW,5.8,-,N/A,,Clear,230,2013-10-31 00:53:00
7:53 PM,37.9,30.9,76,29.74,10.0,West,8.1,-,N/A,,Clear,260,2013-10-31 01:53:00
8:53 PM,35.1,30.9,85,29.73,10.0,WSW,6.9,-,N/A,,Clear,240,2013-10-31 02:53:00
9:53 PM,34.0,30.9,89,29.73,10.0,WSW,9.2,-,N/A,,Clear,240,2013-10-31 03:53:00
10:53 PM,36.0,30.0,79,29.72,10.0,West,9.2,-,N/A,,Clear,270,2013-10-31 04:53:00
11:53 PM,36.0,30.0,79,29.76,10.0,West,11.5,-,N/A,,Clear,270,2013-10-31 05:53:00